TimeEST,TemperatureF,Dew PointF,Humidity,Sea Level PressureIn,VisibilityMPH,Wind Direction,Wind SpeedMPH,Gust SpeedMPH,PrecipitationIn,Events,Conditions,WindDirDegrees,DateUTC
12:15 AM,30.2,26.6,86,30.35,10.0,Calm,Calm,-,N/A,,Clear,0,2012-11-30 05:15:00
12:36 AM,28.4,26.6,93,30.35,10.0,Calm,Calm,-,N/A,,Clear,0,2012-11-30 05:36:00
12:58 AM,26.6,23.0,86,30.35,7.0,Calm,Calm,-,N/A,,Clear,0,2012-11-30 05:58:00
1:19 AM,28.4,26.6,93,30.35,7.0,Calm,Calm,-,N/A,,Clear,0,2012-11-30 06:19:00
1:40 AM,28.4,26.6,93,30.36,10.0,Calm,Calm,-,N/A,,Clear,0,2012-11-30 06:40:00
2:02 AM,28.4,26.6,93,30.36,10.0,Calm,Calm,-,N/A,,Clear,0,2012-11-30 07:02:00
2:23 AM,28.4,26.6,93,30.35,10.0,Calm,Calm,-,N/A,,Clear,0,2012-11-30 07:23:00
2:44 AM,26.6,26.6,100,30.36,10.0,Calm,Calm,-,N/A,,Clear,0,2012-11-30 07:44:00
3:06 AM,26.6,26.6,100,30.36,10.0,Calm,Calm,-,N/A,,Clear,0,2012-11-30 08:06:00
3:27 AM,26.6,26.6,100,30.35,7.0,Calm,Calm,-,N/A,,Clear,0,2012-11-30 08:27:00
3:48 AM,26.6,26.6,100,30.35,7.0,Calm,Calm,-,N/A,,Clear,0,2012-11-30 08:48:00
4:09 AM,26.6,26.6,100,30.35,7.0,Calm,Calm,-,N/A,,Clear,0,2012-11-30 09:09:00
4:31 AM,26.6,26.6,100,30.35,10.0,Calm,Calm,-,N/A,,Clear,0,2012-11-30 09:31:00
4:52 AM,26.6,26.6,100,30.35,7.0,Calm,Calm,-,N/A,,Clear,0,2012-11-30 09:52:00
5:13 AM,24.8,24.8,100,30.36,5.0,Calm,Calm,-,N/A,,Clear,0,2012-11-30 10:13:00
5:35 AM,26.6,26.6,100,30.36,7.0,Calm,Calm,-,N/A,,Clear,0,2012-11-30 10:35:00
5:56 AM,24.8,24.8,100,30.37,10.0,Calm,Calm,-,N/A,,Clear,0,2012-11-30 10:56:00
6:17 AM,24.8,24.8,100,30.37,7.0,Calm,Calm,-,N/A,,Clear,0,2012-11-30 11:17:00
6:38 AM,24.8,24.8,100,30.38,7.0,Calm,Calm,-,N/A,,Clear,0,2012-11-30 11:38:00
7:00 AM,26.6,26.6,100,30.39,7.0,Calm,Calm,-,N/A,,Scattered Clouds,0,2012-11-30 12:00:00
7:21 AM,26.6,26.6,100,30.39,7.0,Calm,Calm,-,N/A,,Scattered Clouds,0,2012-11-30 12:21:00
7:42 AM,26.6,26.6,100,30.39,5.0,Calm,Calm,-,N/A,,Clear,0,2012-11-30 12:42:00
8:04 AM,26.6,26.6,100,30.39,7.0,Calm,Calm,-,N/A,,Clear,0,2012-11-30 13:04:00
8:25 AM,28.4,28.4,100,30.39,7.0,Calm,Calm,-,N/A,,Clear,0,2012-11-30 13:25:00
8:46 AM,28.4,28.4,100,30.39,5.0,Calm,Calm,-,N/A,,Clear,0,2012-11-30 13:46:00
9:07 AM,30.2,28.4,93,30.39,7.0,Calm,Calm,-,N/A,,Clear,0,2012-11-30 14:07:00
9:29 AM,30.2,28.4,93,30.39,7.0,Calm,Calm,-,N/A,,Clear,0,2012-11-30 14:29:00
9:50 AM,32.0,30.2,93,30.39,7.0,Calm,Calm,-,N/A,,Clear,0,2012-11-30 14:50:00
10:11 AM,32.0,28.4,87,30.39,7.0,Calm,Calm,-,N/A,,Clear,0,2012-11-30 15:11:00
10:32 AM,32.0,28.4,87,30.39,10.0,Calm,Calm,-,N/A,,Clear,0,2012-11-30 15:32:00
10:54 AM,33.8,28.4,81,30.38,10.0,Calm,Calm,-,N/A,,Clear,0,2012-11-30 15:54:00
11:15 AM,35.6,28.4,75,30.37,10.0,Calm,Calm,-,N/A,,Clear,0,2012-11-30 16:15:00
11:36 AM,35.6,28.4,75,30.36,10.0,Calm,Calm,-,N/A,,Clear,0,2012-11-30 16:36:00
11:57 AM,37.4,30.2,75,30.36,10.0,Calm,Calm,-,N/A,,Clear,0,2012-11-30 16:57:00
12:18 PM,41.0,28.4,61,30.35,10.0,Calm,Calm,-,N/A,,Clear,0,2012-11-30 17:18:00
12:40 PM,41.0,30.2,65,30.34,10.0,Calm,Calm,-,N/A,,Clear,0,2012-11-30 17:40:00
1:22 PM,44.6,30.2,57,30.32,10.0,South,3.5,-,N/A,,Clear,170,2012-11-30 18:22:00
1:43 PM,46.4,30.2,53,30.30,10.0,South,3.5,-,N/A,,Clear,180,2012-11-30 18:43:00
2:05 PM,46.4,30.2,53,30.30,10.0,WSW,3.5,-,N/A,,Clear,240,2012-11-30 19:05:00
2:26 PM,48.2,30.2,50,30.30,10.0,Calm,Calm,-,N/A,,Clear,0,2012-11-30 19:26:00
2:47 PM,50.0,30.2,47,30.29,10.0,Calm,Calm,-,N/A,,Clear,0,2012-11-30 19:47:00
3:08 PM,50.0,30.2,47,30.28,10.0,Calm,Calm,-,N/A,,Clear,0,2012-11-30 20:08:00
3:30 PM,48.2,30.2,50,30.28,10.0,Calm,Calm,-,N/A,,Clear,0,2012-11-30 20:30:00
3:51 PM,46.4,32.0,57,30.29,10.0,Calm,Calm,-,N/A,,Clear,0,2012-11-30 20:51:00
4:12 PM,46.4,32.0,57,30.29,10.0,NE,3.5,-,N/A,,Clear,50,2012-11-30 21:12:00
4:33 PM,46.4,30.2,53,30.29,10.0,NE,4.6,-,N/A,,Clear,50,2012-11-30 21:33:00
4:54 PM,44.6,30.2,57,30.29,10.0,NNE,3.5,-,N/A,,Clear,30,2012-11-30 21:54:00
5:16 PM,44.6,30.2,57,30.30,10.0,NNW,3.5,-,N/A,,Clear,330,2012-11-30 22:16:00
5:37 PM,44.6,32.0,61,30.30,10.0,North,4.6,-,N/A,,Clear,350,2012-11-30 22:37:00
5:58 PM,44.6,30.2,57,30.31,10.0,North,3.5,-,N/A,,Clear,350,2012-11-30 22:58:00
6:19 PM,42.8,32.0,66,30.31,10.0,NW,4.6,-,N/A,,Clear,320,2012-11-30 23:19:00
6:41 PM,41.0,32.0,70,30.32,10.0,North,4.6,-,N/A,,Clear,350,2012-11-30 23:41:00
7:02 PM,41.0,30.2,65,30.32,7.0,Calm,Calm,-,N/A,,Clear,0,2012-12-01 00:02:00
7:23 PM,41.0,30.2,65,30.32,10.0,NNW,4.6,-,N/A,,Clear,330,2012-12-01 00:23:00
7:44 PM,37.4,30.2,75,30.33,10.0,Calm,Calm,-,N/A,,Clear,0,2012-12-01 00:44:00
8:06 PM,37.4,32.0,81,30.33,10.0,NW,3.5,-,N/A,,Clear,320,2012-12-01 01:06:00
8:27 PM,35.6,32.0,87,30.34,10.0,Calm,Calm,-,N/A,,Clear,0,2012-12-01 01:27:00
8:48 PM,35.6,30.2,81,30.33,10.0,Calm,Calm,-,N/A,,Clear,0,2012-12-01 01:48:00
9:09 PM,35.6,32.0,87,30.34,10.0,NW,4.6,-,N/A,,Scattered Clouds,320,2012-12-01 02:09:00
9:31 PM,35.6,32.0,87,30.34,10.0,Calm,Calm,-,N/A,,Clear,0,2012-12-01 02:31:00
9:52 PM,35.6,32.0,87,30.34,10.0,Calm,Calm,-,N/A,,Clear,0,2012-12-01 02:52:00
10:13 PM,35.6,32.0,87,30.34,10.0,Calm,Calm,-,N/A,,Clear,0,2012-12-01 03:13:00
10:35 PM,33.8,32.0,93,30.34,10.0,Calm,Calm,-,N/A,,Clear,0,2012-12-01 03:35:00
10:56 PM,35.6,32.0,87,30.34,10.0,Calm,Calm,-,N/A,,Clear,0,2012-12-01 03:56:00
11:17 PM,35.6,32.0,87,30.35,10.0,Calm,Calm,-,N/A,,Clear,0,2012-12-01 04:17:00
11:38 PM,33.8,30.2,87,30.35,10.0,Calm,Calm,-,N/A,,Clear,0,2012-12-01 04:38:00